TimeEST,TemperatureF,Dew PointF,Humidity,Sea Level PressureIn,VisibilityMPH,Wind Direction,Wind SpeedMPH,Gust SpeedMPH,PrecipitationIn,Events,Conditions,WindDirDegrees,DateUTC
12:15 AM,34.9,26.6,72,29.58,10.0,SW,6.9,-,N/A,,Overcast,220,2013-02-12 05:15:00
12:35 AM,34.3,26.6,73,29.58,10.0,SW,4.6,-,N/A,,Overcast,230,2013-02-12 05:35:00
12:55 AM,34.3,26.2,72,29.58,10.0,WSW,5.8,-,N/A,,Overcast,240,2013-02-12 05:55:00
1:15 AM,34.3,25.7,71,29.58,10.0,SW,6.9,-,N/A,,Overcast,230,2013-02-12 06:15:00
1:35 AM,34.3,26.2,72,29.58,10.0,WSW,6.9,-,N/A,,Overcast,240,2013-02-12 06:35:00
1:55 AM,34.3,26.6,73,29.58,10.0,SW,4.6,-,N/A,,Overcast,220,2013-02-12 06:55:00
2:15 AM,34.3,26.6,73,29.57,10.0,SSW,5.8,-,N/A,,Overcast,210,2013-02-12 07:15:00
2:35 AM,34.3,26.4,73,29.57,10.0,SSW,6.9,-,N/A,,Overcast,200,2013-02-12 07:35:00
2:55 AM,34.3,26.1,72,29.57,10.0,SSW,4.6,-,N/A,,Overcast,210,2013-02-12 07:55:00
3:15 AM,34.3,26.1,72,29.56,10.0,SW,5.8,-,N/A,,Overcast,230,2013-02-12 08:15:00
3:35 AM,34.3,26.2,72,29.56,10.0,SSW,5.8,-,N/A,,Overcast,210,2013-02-12 08:35:00
3:55 AM,34.3,26.4,73,29.56,10.0,SW,5.8,-,N/A,,Overcast,220,2013-02-12 08:55:00
4:15 AM,34.3,26.6,73,29.56,10.0,SSW,6.9,-,N/A,,Overcast,210,2013-02-12 09:15:00
4:35 AM,34.3,26.6,73,29.56,10.0,SW,6.9,-,N/A,,Overcast,220,2013-02-12 09:35:00
4:55 AM,34.3,27.3,76,29.56,10.0,SW,5.8,-,N/A,,Overcast,220,2013-02-12 09:55:00
5:15 AM,34.3,27.5,76,29.56,10.0,SW,8.1,-,N/A,Snow,Light Snow,230,2013-02-12 10:15:00
5:35 AM,34.0,28.9,82,29.56,4.0,SW,4.6,-,N/A,Snow,Light Snow,220,2013-02-12 10:35:00
5:55 AM,32.9,28.8,85,29.56,4.0,SW,5.8,-,N/A,Snow,Light Snow,230,2013-02-12 10:55:00
6:35 AM,32.0,29.3,90,29.57,2.5,SSW,4.6,-,N/A,Snow,Light Snow,210,2013-02-12 11:35:00
6:55 AM,32.0,30.0,92,29.57,1.8,SW,4.6,-,N/A,Snow,Light Snow,220,2013-02-12 11:55:00
7:15 AM,32.0,30.0,92,29.58,1.5,SW,4.6,-,N/A,Snow,Light Snow,220,2013-02-12 12:15:00
7:35 AM,32.0,30.2,93,29.58,3.0,SW,5.8,-,N/A,Snow,Light Snow,220,2013-02-12 12:35:00
7:55 AM,32.0,30.2,93,29.59,3.0,SW,5.8,-,N/A,Snow,Light Snow,220,2013-02-12 12:55:00
8:15 AM,32.0,30.2,93,29.59,5.0,SW,4.6,-,N/A,Snow,Light Snow,220,2013-02-12 13:15:00
8:35 AM,32.0,30.2,93,29.59,10.0,SW,4.6,-,N/A,,Overcast,220,2013-02-12 13:35:00
8:55 AM,32.0,30.6,94,29.60,10.0,WSW,4.6,-,N/A,,Overcast,240,2013-02-12 13:55:00
9:15 AM,33.8,30.9,89,29.61,10.0,WSW,4.6,-,N/A,,Overcast,240,2013-02-12 14:15:00
9:35 AM,34.3,30.6,86,29.61,10.0,WSW,5.8,-,N/A,,Overcast,250,2013-02-12 14:35:00
9:55 AM,34.3,30.2,85,29.62,10.0,WSW,8.1,-,N/A,,Overcast,250,2013-02-12 14:55:00
10:15 AM,34.3,29.5,82,29.63,5.0,West,9.2,20.7,N/A,Snow,Light Snow,260,2013-02-12 15:15:00
10:35 AM,34.3,30.2,85,29.63,7.0,West,8.1,-,N/A,Snow,Light Snow,260,2013-02-12 15:35:00
11:15 AM,34.3,28.9,81,29.65,10.0,West,6.9,16.1,N/A,Snow,Light Snow,270,2013-02-12 16:15:00
11:35 AM,34.3,28.4,79,29.66,10.0,WSW,10.4,17.3,N/A,,Overcast,250,2013-02-12 16:35:00
11:55 AM,34.3,28.0,78,29.66,10.0,West,9.2,19.6,N/A,,Overcast,260,2013-02-12 16:55:00
12:15 PM,34.3,27.7,77,29.66,10.0,West,11.5,18.4,N/A,,Overcast,270,2013-02-12 17:15:00
12:35 PM,34.7,27.7,76,29.67,10.0,West,11.5,18.4,N/A,,Overcast,270,2013-02-12 17:35:00
12:55 PM,34.3,27.7,77,29.67,10.0,West,5.8,-,N/A,,Overcast,280,2013-02-12 17:55:00
1:15 PM,34.7,27.7,76,29.68,10.0,West,9.2,-,N/A,,Overcast,270,2013-02-12 18:15:00
1:35 PM,34.7,27.3,74,29.69,10.0,West,8.1,20.7,N/A,,Overcast,260,2013-02-12 18:35:00
1:55 PM,34.3,28.2,78,29.70,10.0,West,4.6,-,N/A,,Overcast,270,2013-02-12 18:55:00
2:15 PM,34.3,28.9,81,29.70,10.0,West,5.8,-,N/A,,Overcast,260,2013-02-12 19:15:00
2:35 PM,34.0,29.8,85,29.71,7.0,West,9.2,-,N/A,Snow,Light Snow,260,2013-02-12 19:35:00
2:55 PM,34.2,29.8,84,29.71,10.0,West,8.1,-,N/A,,Overcast,280,2013-02-12 19:55:00
3:15 PM,34.3,29.7,83,29.72,10.0,West,9.2,-,N/A,,Overcast,270,2013-02-12 20:15:00
3:35 PM,34.0,29.3,83,29.72,7.0,West,3.5,16.1,N/A,,Overcast,270,2013-02-12 20:35:00
3:55 PM,34.3,28.8,80,29.72,10.0,West,3.5,-,N/A,,Overcast,260,2013-02-12 20:55:00
4:15 PM,34.3,28.0,78,29.72,10.0,West,5.8,-,N/A,,Overcast,260,2013-02-12 21:15:00
4:35 PM,34.3,27.3,76,29.72,10.0,West,10.4,17.3,N/A,,Overcast,260,2013-02-12 21:35:00
4:55 PM,34.3,26.6,73,29.72,10.0,West,9.2,-,N/A,,Overcast,260,2013-02-12 21:55:00
5:15 PM,34.3,26.2,72,29.73,10.0,West,10.4,16.1,N/A,,Overcast,260,2013-02-12 22:15:00
5:35 PM,34.3,26.2,72,29.74,10.0,West,5.8,-,N/A,,Overcast,260,2013-02-12 22:35:00
5:55 PM,34.3,26.2,72,29.74,10.0,WSW,8.1,-,N/A,,Overcast,250,2013-02-12 22:55:00
6:15 PM,34.3,26.1,72,29.75,10.0,West,6.9,-,N/A,,Overcast,260,2013-02-12 23:15:00
6:35 PM,34.3,26.6,73,29.75,10.0,West,3.5,-,N/A,,Overcast,260,2013-02-12 23:35:00
7:15 PM,33.8,25.7,72,29.77,10.0,West,6.9,-,N/A,,Overcast,260,2013-02-13 00:15:00
7:35 PM,33.1,25.2,73,29.78,10.0,West,8.1,-,N/A,,Overcast,260,2013-02-13 00:35:00
7:55 PM,32.9,24.8,72,29.78,10.0,West,6.9,16.1,N/A,Snow,Light Snow,270,2013-02-13 00:55:00
8:15 PM,32.0,24.4,74,29.79,10.0,West,6.9,-,N/A,Snow,Light Snow,260,2013-02-13 01:15:00
8:35 PM,32.0,24.1,73,29.80,10.0,West,8.1,-,N/A,,Overcast,260,2013-02-13 01:35:00
9:15 PM,32.0,24.4,74,29.81,10.0,West,4.6,-,N/A,,Overcast,260,2013-02-13 02:15:00
9:35 PM,32.0,23.9,72,29.81,10.0,West,8.1,-,N/A,,Overcast,260,2013-02-13 02:35:00
10:15 PM,32.0,23.7,71,29.81,10.0,West,4.6,-,N/A,,Overcast,260,2013-02-13 03:15:00
10:35 PM,32.0,23.7,71,29.81,10.0,West,5.8,-,N/A,,Overcast,270,2013-02-13 03:35:00
10:55 PM,32.0,23.9,72,29.81,10.0,Calm,Calm,-,N/A,Snow,Light Snow,0,2013-02-13 03:55:00
11:15 PM,32.0,23.7,71,29.81,10.0,West,5.8,-,N/A,,Overcast,260,2013-02-13 04:15:00
11:35 PM,32.0,23.0,69,29.81,10.0,West,8.1,-,N/A,Snow,Light Snow,260,2013-02-13 04:35:00
11:55 PM,32.0,23.9,72,29.81,10.0,West,5.8,-,N/A,Snow,Light Snow,260,2013-02-13 04:55:00